Augusta, ME

4:50 AM EDT on September 22, 2019 (GMT -0400)
Augusta State

Weather History for KAUG - August, 2019

Change the Weather History Date:

Thursday, August 22, 2019

  Actual Average Record
Temperature  
Mean Temperature 75 °F 68 °F  
Max Temperature 84 °F 77 °F 91 °F (1955)
Min Temperature 66 °F 58 °F 46 °F (2007)
Degree Days  
Heating Degree Days 0 1  
Month to date heating degree days 0 11  
Since 1 June heating degree days 76 121  
Since 1 July heating degree days 0 27  
Cooling Degree Days 10 4  
Month to date cooling degree days 129 100  
Year to date cooling degree days 412 330  
Since 1 June cooling degree days 412 321  
Growing Degree Days 24 (Base 50)    
Moisture  
Dew Point 67 °F    
Average Humidity 82    
Maximum Humidity 100    
Minimum Humidity 64    
Precipitation  
Precipitation T in 0.10 in 1.13 in (2016)
Month to date precipitation 2.55 2.40  
Year to date precipitation 26.25 25.27  
Sea Level Pressure  
Sea Level Pressure 29.80 in    
Wind  
Wind Speed 5 mph (West)    
Max Wind Speed 13 mph    
Max Gust Speed 18 mph    
Visibility 7 miles    
Events Fog , Rain    
T = Trace of Precipitation, MM = Missing Value Source: NWS Daily Summary

Daily Weather History Graph

Daily Weather History Graph

Search for Another Location

Airport or City:

Astronomy

Aug. 22, 2019 Rise Set
Actual Time 5:50 AM EDT 7:33 PM EDT
Civil Twilight 5:19 AM EDT 8:03 PM EDT
Nautical Twilight 4:41 AM EDT 8:41 PM EDT
Astronomical Twilight 4:01 AM EDT 9:21 PM EDT
Moon 11:05 PM EDT 12:37 PM EDT
Length of Visible Light 14h 44m
Length of Day
13h 43m
Waning Gibbous, 60% of the Moon is Illuminated
Aug 22
Waning Gibbous
Aug 23
Last Quarter
Aug 30
New
Sep 5
First Quarter
Sep 14
Full

Hourly Weather History & Observations

Time (EDT) Temp. Heat Index Dew Point Humidity Pressure Visibility Wind Dir Wind Speed Gust Speed Precip Events Conditions
12:53 AM 68.0 °F - 68.0 °F 100% 29.79 in 0.2 mi Calm Calm - N/A Fog Fog
1:40 AM 68.0 °F - 68.0 °F 100% 29.78 in 0.5 mi Calm Calm - N/A Fog Fog
1:53 AM 68.0 °F - 68.0 °F 100% 29.78 in 0.5 mi Calm Calm - N/A Fog Fog
2:19 AM 68.0 °F - 68.0 °F 100% 29.78 in 1.5 mi WSW 3.5 mph - N/A   Overcast
2:30 AM 68.0 °F - 68.0 °F 100% 29.78 in 3.0 mi Calm Calm - N/A   Overcast
2:53 AM 68.0 °F - 68.0 °F 100% 29.78 in 5.0 mi WNW 4.6 mph - N/A   Overcast
3:36 AM 68.0 °F - 68.0 °F 100% 29.79 in 10.0 mi WNW 4.6 mph - N/A   Overcast
3:53 AM 68.0 °F - 68.0 °F 100% 29.79 in 10.0 mi WNW 3.5 mph - N/A   Overcast
4:13 AM 66.9 °F - 66.9 °F 100% 29.78 in 10.0 mi NW 3.5 mph - N/A   Overcast
4:31 AM 66.9 °F - 66.9 °F 100% 29.79 in 10.0 mi Calm Calm - N/A   Scattered Clouds
4:53 AM 66.9 °F - 66.9 °F 100% 29.79 in 8.0 mi Calm Calm - N/A   Scattered Clouds
5:05 AM 66.9 °F - 66.9 °F 100% 29.80 in 3.0 mi Calm Calm - N/A   Mostly Cloudy
5:41 AM 66.9 °F - 66.9 °F 100% 29.80 in 2.5 mi Calm Calm - N/A   Scattered Clouds
5:53 AM 66.9 °F - 66.9 °F 100% 29.80 in 8.0 mi Calm Calm - N/A   Scattered Clouds
6:00 AM 66.9 °F - 66.9 °F 100% 29.80 in 9.0 mi Calm Calm - N/A   Mostly Cloudy
6:19 AM 66.9 °F - 66.9 °F 100% 29.80 in 1.8 mi South 3.5 mph - N/A   Overcast
6:53 AM 66.0 °F - 66.0 °F 100% 29.82 in 0.2 mi SSW 6.9 mph - N/A Fog Fog
6:59 AM 66.0 °F - 66.0 °F 100% 29.81 in 1.5 mi Variable 4.6 mph - N/A   Mostly Cloudy
7:06 AM 66.9 °F - 66.9 °F 100% 29.81 in 8.0 mi Variable 4.6 mph - N/A   Mostly Cloudy
7:20 AM 66.9 °F - 66.9 °F 100% 29.82 in 8.0 mi SW 5.8 mph - N/A   Mostly Cloudy
7:53 AM 66.9 °F - 66.9 °F 100% 29.83 in 8.0 mi Variable 3.5 mph - N/A   Overcast
8:34 AM 69.1 °F - 66.9 °F 93% 29.83 in 10.0 mi Variable 5.8 mph - N/A   Mostly Cloudy
8:53 AM 69.1 °F - 68.0 °F 96% 29.83 in 10.0 mi WSW 8.1 mph - N/A   Mostly Cloudy
9:53 AM 72.0 °F - 68.0 °F 87% 29.84 in 10.0 mi Variable 3.5 mph - N/A   Mostly Cloudy
10:10 AM 73.0 °F - 69.1 °F 87% 29.84 in 10.0 mi Variable 4.6 mph - N/A   Scattered Clouds
10:53 AM 75.0 °F - 69.1 °F 82% 29.83 in 10.0 mi South 6.9 mph - N/A   Mostly Cloudy
11:53 AM 77.0 °F - 69.1 °F 76% 29.81 in 10.0 mi Variable 3.5 mph - N/A   Mostly Cloudy
12:53 PM 82.0 °F 85.9 °F 70.0 °F 67% 29.79 in 10.0 mi Variable 3.5 mph - N/A   Clear
1:53 PM 82.0 °F 85.9 °F 70.0 °F 67% 29.79 in 10.0 mi SW 6.9 mph - N/A   Scattered Clouds
2:53 PM 82.9 °F 87.5 °F 71.1 °F 67% 29.77 in 10.0 mi Variable 6.9 mph - N/A   Clear
3:53 PM 82.9 °F 86.5 °F 69.1 °F 63% 29.76 in 10.0 mi SSW 10.4 mph - N/A   Clear
4:53 PM 77.0 °F - 70.0 °F 79% 29.76 in 10.0 mi WNW 11.5 mph - 0.00 in Rain Light Rain
5:53 PM 78.1 °F - 69.1 °F 74% 29.77 in 10.0 mi WNW 4.6 mph - 0.00 in   Clear
6:53 PM 78.1 °F - 66.9 °F 68% 29.79 in 10.0 mi WNW 5.8 mph - N/A   Mostly Cloudy
7:53 PM 75.0 °F - 68.0 °F 79% 29.81 in 10.0 mi West 5.8 mph - N/A   Mostly Cloudy
8:53 PM 75.0 °F - 63.0 °F 66% 29.82 in 10.0 mi WNW 4.6 mph - N/A   Clear
9:53 PM 72.0 °F - 60.1 °F 66% 29.83 in 10.0 mi WNW 6.9 mph - N/A   Mostly Cloudy
10:53 PM 70.0 °F - 57.0 °F 63% 29.84 in 10.0 mi NW 5.8 mph - N/A   Overcast
11:53 PM 69.1 °F - 57.0 °F 65% 29.85 in 10.0 mi NW 4.6 mph - N/A   Clear